Home   Weather   Orlando   Past weeks
Flag for USA

Past Weather in Orlando, Florida, USA — Yesterday and Last 2 Weeks

Now
80 °F

Sunny.


Feels Like: 82 °F
Forecast: 94 / 67 °F
Wind: 7 mph from South

Location: Orlando Executive Airport

Current Time: Mar 28, 2020 at 11:44:16 am

Latest Report: Mar 28, 2020 at 10:53 am


Visibility: 10 mi

Pressure: 30.11 "Hg

Humidity: 60%

Dew Point: 65 °F

Location of OrlandoLocation

Past Weather in Orlando — Graph

°F

Orlando Temperature Yesterday

Maximum temperature yesterday: 90 °F (at 3:53 pm)
Minimum temperature yesterday: 70 °F (at 5:53 am)
Average temperature yesterday: 79 °F

High & Low Weather Summary for the Past Weeks

 TemperatureHumidityPressure
High90 °F (Mar 27, 3:53 pm)94% (Mar 14, 6:53 am)30.36 "Hg (Mar 14, 6:53 am)
Low64 °F (Mar 14, 4:53 am)33% (Mar 14, 4:53 pm)29.89 "Hg (Mar 25, 4:53 pm)
Average76 °F66%30.17 "Hg
* Reported Mar 13 9:53 am — Mar 28 9:53 am, Orlando. Weather by CustomWeather, © 2020

Note: Actual official high and low records may vary slightly from our data, if they occured in-between our weather recording intervals... More about our weather records

Orlando Weather History for the Previous 24 Hours

Scroll right to see more
 ConditionsComfort  
Time TempWeatherWind HumidityBarometerVisibility
9:53 am
Sat, Mar 28
77 °FSunny.9 mph69%30.11 "Hg10 mi
8:53 am73 °FSunny.7 mph81%30.09 "Hg10 mi
7:53 am68 °FSunny.5 mph93%30.08 "Hg9 mi
6:53 am68 °FClear.3 mph90%30.06 "Hg9 mi
5:53 am69 °FClear.3 mph87%30.04 "Hg10 mi
4:53 am71 °FClear.6 mph84%30.03 "Hg10 mi
3:53 am72 °FClear.6 mph81%30.04 "Hg10 mi
2:53 am73 °FClear.7 mph76%30.05 "Hg10 mi
1:53 am74 °FClear.9 mph74%30.06 "Hg10 mi
12:53 am75 °FClear.9 mph66%30.07 "Hg10 mi
11:53 pm
Fri, Mar 27
75 °FClear.10 mph69%30.07 "Hg10 mi
10:53 pm76 °FClear.8 mph67%30.06 "Hg10 mi
9:53 pm78 °FClear.10 mph64%30.06 "Hg10 mi
8:53 pm79 °FClear.10 mph62%30.03 "Hg10 mi
7:53 pm82 °FClear.14 mph58%30.02 "Hg10 mi
6:53 pm86 °FPassing clouds.14 mph51%30.00 "Hg10 mi
5:53 pm90 °FPassing clouds.8 mph37%29.99 "Hg10 mi
4:53 pm90 °FSunny.8 mph37%29.99 "Hg10 mi
3:53 pm90 °FScattered clouds.8 mph38%30.01 "Hg10 mi
2:53 pm89 °FScattered clouds.8 mph41%30.01 "Hg10 mi
1:53 pm88 °FPassing clouds.9 mph42%30.03 "Hg10 mi
12:53 pm86 °FPartly sunny.12 mph48%30.05 "Hg10 mi
11:53 am84 °FPassing clouds.8 mph55%30.06 "Hg10 mi
Weather by CustomWeather, © 2020

See weather overview

Advertising